GFSNE_sfc_wetblb_102.txt.gz
Wetbulb
52.29 52.66 53.06 53.28 54.19 54.17 53.62 53.05 51.34 47.92 48.43 51.66 51.99 53.68 52.84 52.65 52.27 52.67 52.91 51.09 48.56 48.00 47.80 48.91 50.83 52.12 52.85 53.60 54.63 55.51 56.62 56.99 57.38 57.27 57.74 57.96 58.24 57.84
53.79 53.20 53.49 53.94 54.05 54.21 53.93 53.12 52.47 51.29 49.02 51.72 52.21 53.94 53.72 53.53 53.27 53.09 52.82 50.37 48.15 46.52 45.99 46.59 47.30 48.93 50.13 50.81 51.58 52.36 53.10 53.72 54.27 55.06 56.02 56.40 56.28 55.64
54.33 54.19 54.04 54.33 53.85 53.79 54.29 54.03 53.55 52.84 51.27 53.12 52.96 52.64 52.42 53.10 53.11 53.14 52.75 52.42 51.97 47.70 46.18 45.32 45.10 45.36 46.12 46.62 47.14 48.27 49.17 50.18 50.58 49.85 48.68 48.51 49.09 49.43
53.78 53.94 54.06 54.50 53.90 53.91 53.77 53.57 53.83 53.80 52.81 51.34 52.52 51.31 50.90 50.34 50.37 50.40 49.81 51.21 50.88 45.05 44.17 44.11 44.28 43.99 43.59 43.32 43.42 43.79 44.15 44.05 43.30 42.42 42.44 42.76 42.54 42.83
54.11 54.11 54.15 54.20 54.23 54.34 54.10 53.39 53.45 53.38 53.17 52.81 52.55 50.12 48.49 47.00 46.92 46.51 46.59 46.57 46.21 44.57 42.25 42.01 42.09 42.20 41.64 41.40 41.12 41.18 41.36 41.41 40.63 39.95 39.83 40.01 40.25 40.99
53.39 53.58 54.06 53.97 54.15 53.95 53.86 54.05 53.77 52.48 52.28 52.55 52.36 52.32 49.24 45.12 45.30 44.50 41.73 42.15 41.28 42.45 41.56 40.10 40.35 40.45 39.64 38.56 38.48 38.67 38.90 38.71 37.73 36.56 35.53 34.82 34.65 35.19
53.28 53.39 53.76 52.72 49.72 51.59 54.02 53.82 53.34 52.06 52.05 51.72 51.61 51.72 45.40 40.50 41.33 41.23 39.92 37.17 35.56 36.47 38.66 38.43 38.42 37.70 34.04 34.11 35.79 36.21 35.33 34.61 33.66 32.94 32.56 32.23 32.18 32.28
52.00 52.37 52.69 47.81 47.05 40.05 38.49 36.72 38.67 50.80 51.98 51.49 51.43 45.89 41.60 37.14 36.68 36.27 35.38 34.49 32.71 30.25 32.82 29.88 32.22 29.21 30.05 31.00 34.51 33.30 32.59 31.85 31.33 31.26 31.14 31.04 30.88 30.89
51.92 50.94 46.51 42.88 40.46 37.16 35.20 34.24 33.43 33.31 31.34 41.11 44.12 35.18 33.03 33.78 34.62 32.91 32.20 31.90 28.36 26.38 29.79 26.92 28.10 26.28 28.08 29.69 32.27 31.20 30.05 29.73 29.77 29.84 29.27 29.01 28.92 29.23
50.13 49.95 47.98 42.94 39.49 36.87 33.00 30.93 30.67 30.54 30.62 30.97 29.70 29.24 29.53 30.69 31.11 30.90 29.22 26.50 26.77 25.19 26.78 24.84 25.58 24.73 26.89 28.28 29.60 28.92 28.13 28.17 27.72 26.98 26.61 26.78 26.89 27.31
41.78 43.00 45.55 40.76 36.68 36.69 31.81 29.50 28.64 29.38 31.77 31.77 31.21 30.66 30.39 30.35 30.76 29.69 27.82 27.26 25.43 22.37 22.18 24.07 23.05 22.16 24.38 25.47 25.94 26.57 25.83 25.64 25.32 24.97 25.07 25.55 26.22 26.52
33.46 34.20 35.74 35.98 34.66 33.26 31.00 29.08 26.25 25.93 25.79 25.24 25.00 25.19 25.43 25.43 25.28 24.61 26.08 23.78 23.95 21.42 20.66 20.70 20.31 19.37 17.84 23.64 23.06 22.93 22.35 22.48 22.75 23.18 23.77 24.58 24.60 23.35
31.42 31.06 32.20 32.59 32.60 32.17 31.08 28.84 26.50 26.16 24.76 23.90 22.93 22.27 21.91 21.70 21.91 22.35 22.49 22.24 21.01 17.44 20.59 20.20 18.81 18.31 17.63 17.49 19.51 20.95 19.66 19.37 19.71 20.71 22.15 22.40 22.74 22.21
29.93 30.84 31.54 31.97 31.33 30.16 28.94 28.54 27.34 25.28 23.82 21.83 20.35 18.80 18.58 19.17 19.83 20.34 21.17 20.90 21.12 19.13 19.20 19.16 16.93 15.40 13.93 13.12 12.68 17.22 17.99 19.11 19.45 18.88 19.51 20.26 20.38 20.84
30.20 30.34 29.58 28.88 27.79 26.70 26.76 25.87 24.09 22.40 20.52 18.53 17.17 17.01 17.97 19.07 19.31 18.63 19.99 19.64 19.12 19.00 19.17 18.41 17.00 16.08 14.86 12.98 12.29 13.58 14.42 16.80 18.34 18.08 17.93 17.86 17.71 18.69
23.81 23.49 23.47 23.27 22.35 21.67 21.46 21.82 21.15 20.70 18.84 17.36 16.68 17.07 17.25 16.34 15.15 16.01 14.53 15.77 14.53 14.12 17.32 17.51 17.02 15.81 12.90 13.65 13.56 12.79 14.45 12.30 16.26 16.84 17.08 17.00 17.81 18.12
23.48 22.47 21.13 20.20 19.10 18.73 18.68 18.83 18.99 18.43 16.64 16.66 15.70 15.01 14.55 14.24 13.09 13.98 13.05 12.32 10.55 10.35 11.23 13.74 15.87 15.44 15.36 14.05 11.69 13.10 12.98 13.35 15.14 15.34 14.26 13.77 15.83 17.43
21.13 18.73 17.58 17.22 16.40 16.45 15.86 15.74 16.27 15.45 15.36 14.94 14.60 13.79 12.61 12.02 11.35 11.13 10.99 9.89 8.95 9.33 9.56 11.01 11.49 10.75 11.68 13.39 15.97 12.88 12.46 12.74 13.42 13.63 14.19 12.17 12.36 16.18
17.45 16.58 15.76 15.58 15.46 15.37 14.94 13.97 12.79 13.23 13.42 12.49 11.87 10.96 11.09 10.17 9.10 8.69 7.91 7.82 7.78 8.46 9.20 10.31 9.61 8.17 4.42 2.64 9.60 15.67 12.02 11.74 12.09 11.67 12.86 12.52 12.11 14.19
15.92 14.67 14.36 14.54 14.29 13.81 13.29 12.24 11.28 10.93 9.99 8.57 7.00 6.31 7.16 7.54 6.58 5.87 5.96 4.05 5.51 7.16 7.87 9.18 8.45 7.65 5.28 4.42 5.44 9.79 14.79 12.05 11.83 10.85 11.34 13.92 15.22 17.70
12.50 11.95 12.10 11.83 11.04 9.86 8.76 7.82 6.78 5.64 5.16 3.65 2.95 2.43 0.76 4.44 3.33 3.48 3.12 1.47 2.88 5.74 4.96 5.68 7.77 10.58 9.90 9.92 5.00 6.64 10.27 14.60 14.41 12.40 12.42 12.11 12.51 14.44
10.70 9.98 9.92 9.33 8.88 7.94 6.76 5.36 4.43 3.60 2.66 2.16 -3.21 -2.68 -2.05 1.93 0.78 0.09 0.02 0.96 2.92 3.83 4.47 6.29 8.03 7.77 7.21 5.88 4.33 4.58 6.87 9.77 12.78 16.13 18.22 18.13 14.29 11.15
6.64 6.24 6.06 5.97 5.85 5.23 5.44 2.92 1.26 -0.41 1.39 0.49 0.62 -0.57 -6.10 -1.53 0.01 0.35 0.20 0.88 1.89 1.98 3.01 3.09 4.44 5.96 5.11 4.69 3.70 4.31 4.27 6.44 9.27 12.19 16.26 21.52 25.48 23.08

GFSNE_sfc_wetblb_105.txt.gz
Wetbulb
55.16 55.94 55.94 55.06 55.82 56.31 57.36 56.89 55.47 51.99 52.97 56.05 56.24 58.57 58.32 58.49 56.34 58.00 58.12 53.03 48.56 47.94 47.85 48.85 50.43 51.71 52.42 53.13 53.86 54.55 55.60 56.48 56.87 57.40 57.75 58.16 58.53 58.59
54.30 53.29 54.65 55.06 56.49 57.96 55.52 54.67 55.71 55.66 52.63 55.85 56.63 59.24 59.02 57.82 57.13 57.55 57.97 51.91 48.43 46.74 46.37 46.71 47.73 49.23 50.25 50.65 51.18 51.56 52.08 52.65 53.13 53.57 53.82 54.02 53.76 53.15
53.68 53.54 53.61 55.04 56.00 56.37 55.06 54.09 54.16 55.21 53.35 54.87 57.21 58.82 57.99 58.49 58.94 59.02 58.42 58.57 58.41 47.53 46.18 45.41 45.08 45.66 46.13 46.15 46.45 47.19 47.96 48.43 47.64 46.94 46.65 46.55 46.78 46.95
52.79 53.53 53.48 54.02 54.73 55.18 54.25 54.61 54.57 57.28 56.34 54.63 56.13 54.27 55.79 57.63 58.79 57.86 55.82 54.88 55.37 44.70 43.99 44.01 43.88 43.16 42.73 42.72 43.04 43.58 43.46 42.46 41.94 41.88 42.29 42.41 42.85 43.55
53.44 53.28 53.32 53.16 53.78 54.67 54.20 54.21 54.83 55.01 56.11 56.24 55.64 55.46 56.11 54.44 54.95 54.00 52.76 49.45 45.86 43.23 41.68 41.60 41.67 40.78 40.11 40.08 40.34 40.65 40.19 39.39 37.84 36.99 36.24 36.38 36.97 37.80
53.88 53.94 54.02 53.38 53.09 53.65 53.98 54.23 54.65 54.16 54.08 53.81 54.24 54.08 55.32 56.07 53.24 53.38 47.77 45.02 42.50 41.40 40.93 39.97 37.43 36.37 36.81 37.44 37.47 37.26 36.28 35.30 34.49 33.95 33.26 32.85 32.95 33.45
53.90 54.30 54.74 53.36 49.64 51.76 54.12 54.34 53.69 53.01 53.01 52.24 51.47 52.27 52.24 46.05 48.76 49.66 46.36 37.13 33.80 36.86 36.39 34.65 33.35 32.69 33.18 35.05 34.82 34.14 33.45 32.82 32.41 32.38 31.98 31.64 31.41 31.44
52.59 53.09 53.26 48.23 48.18 44.00 41.18 40.32 48.61 53.46 52.67 52.09 51.46 50.30 51.43 48.65 41.68 41.14 36.50 34.53 32.93 31.47 32.28 29.81 31.10 29.54 31.08 33.24 32.89 31.58 31.14 31.10 30.89 30.01 29.27 28.85 28.64 28.69
53.65 53.17 52.47 50.69 45.80 41.37 35.79 34.82 34.15 33.89 32.06 43.43 49.41 44.38 39.02 39.43 37.35 34.87 34.50 32.60 27.88 27.26 31.31 26.18 29.01 27.01 30.09 33.56 31.46 29.72 29.50 29.35 28.47 27.68 27.30 27.16 27.29 27.48
56.55 56.26 55.57 53.65 46.88 41.26 37.23 33.58 32.86 32.89 33.07 33.22 32.96 31.56 32.07 32.84 33.65 32.86 29.59 26.21 25.87 24.76 26.55 24.84 26.40 25.74 28.34 31.35 28.82 27.96 27.48 26.99 26.19 25.93 26.07 26.19 26.60 26.86
53.63 55.38 55.64 55.71 41.19 38.86 34.73 31.82 30.56 30.17 31.85 31.62 31.02 30.50 30.17 30.26 32.22 32.03 29.40 28.02 24.28 21.26 22.90 26.29 24.43 24.44 26.99 29.18 29.31 26.57 25.42 24.41 24.77 24.42 24.64 24.89 25.32 24.92
35.51 34.65 35.15 43.67 36.02 35.37 35.58 31.30 27.42 26.74 25.28 24.65 24.62 24.70 25.26 25.64 25.87 25.95 28.04 26.34 24.32 21.46 22.36 25.03 23.16 21.86 21.93 25.88 26.03 25.32 25.02 24.31 23.71 23.82 23.72 24.19 24.09 24.96
32.30 31.68 32.45 33.01 33.23 32.84 31.93 29.22 25.87 25.12 23.74 22.82 22.20 21.75 21.62 22.03 22.71 23.67 24.78 26.03 21.92 19.54 20.54 24.34 21.18 21.68 19.99 19.93 23.04 24.16 24.38 23.82 24.74 25.22 24.16 23.97 23.53 23.25
31.55 31.42 31.43 31.23 30.42 29.29 27.91 27.61 26.20 24.29 22.73 21.00 19.93 19.10 19.38 19.74 21.01 21.99 22.78 21.92 21.92 20.02 21.00 22.27 19.72 18.73 18.26 17.46 17.53 22.69 23.32 23.33 24.10 23.23 24.35 23.61 23.50 23.56
29.95 29.80 29.63 28.43 27.60 26.52 26.38 25.42 23.51 21.70 19.71 17.72 17.08 17.75 18.99 20.15 20.86 20.88 21.07 20.77 20.23 20.32 20.32 20.62 19.65 19.40 19.24 18.81 18.61 19.56 18.43 22.05 23.31 22.79 23.37 23.08 23.10 23.62
23.77 23.18 22.91 22.92 22.54 22.09 21.73 21.73 21.46 21.25 19.70 18.36 17.09 17.71 18.47 17.70 17.19 18.28 17.90 18.01 17.55 17.08 19.13 19.90 20.21 19.35 19.40 19.70 19.32 19.79 21.38 19.07 22.18 22.09 21.89 22.03 23.71 24.33
26.37 25.30 23.81 22.65 20.95 20.38 19.63 19.33 19.63 19.26 18.01 18.03 17.10 16.53 15.57 15.66 15.47 16.78 16.93 17.01 16.91 16.42 16.86 18.61 19.91 20.07 20.26 18.77 19.15 20.17 20.08 20.09 21.70 20.87 20.06 19.97 22.44 23.88
25.54 23.38 22.21 21.78 20.28 19.25 18.57 17.95 18.17 17.36 17.47 17.46 16.71 16.05 15.43 15.21 14.72 15.36 16.10 16.54 15.44 15.45 15.90 16.68 18.02 18.80 19.58 20.14 18.65 17.96 19.05 19.01 19.54 20.00 20.21 18.11 19.25 23.82
23.98 22.33 21.70 21.09 20.19 19.43 18.36 17.36 15.61 15.95 16.43 15.83 15.42 14.42 13.98 13.96 14.73 13.46 14.55 15.53 14.88 15.24 15.49 16.01 15.77 15.09 13.75 13.37 18.66 16.97 16.22 16.49 17.51 18.44 19.07 18.53 18.13 21.55
21.83 20.79 19.63 19.65 18.85 17.98 17.53 16.44 15.01 14.27 13.87 13.58 13.16 13.20 13.36 13.06 12.55 12.09 12.11 12.50 14.03 14.55 14.66 15.54 14.80 13.08 11.95 11.53 11.97 16.55 17.95 16.17 16.54 15.75 16.88 19.66 21.72 22.10
17.86 17.40 17.80 17.31 16.57 15.87 15.26 14.76 14.01 13.23 12.45 11.87 11.29 11.20 12.12 12.83 11.46 11.45 11.45 8.54 11.55 13.27 12.81 13.22 13.33 11.83 15.15 16.07 14.08 15.47 17.62 17.89 17.28 15.43 16.30 17.07 20.49 23.48
16.16 15.51 15.53 15.54 15.26 14.45 14.00 13.21 12.73 12.13 11.46 11.06 10.47 10.13 11.15 12.27 10.80 10.53 10.52 11.73 11.60 12.29 12.46 14.15 14.71 14.65 14.44 12.40 11.58 11.93 14.80 17.15 18.91 20.13 20.06 19.14 20.64 22.38
13.96 14.09 13.97 13.95 13.84 13.71 13.67 12.96 11.75 11.51 10.52 10.08 10.74 9.46 9.65 9.74 10.74 10.91 11.16 10.87 10.47 10.63 10.65 11.57 12.61 13.88 12.50 11.89 10.16 11.85 12.43 14.30 17.73 19.58 24.86 22.88 23.45 23.96

GFSNE_sfc_wetblb_108.txt.gz
Wetbulb
57.07 57.61 58.17 57.57 58.99 57.31 58.20 58.90 55.24 52.03 53.26 57.67 57.76 60.47 61.42 61.92 59.58 59.75 60.26 54.59 48.54 48.06 47.97 49.27 50.89 51.95 52.37 53.00 53.61 54.30 55.33 55.96 56.27 56.55 56.69 57.03 57.22 57.36
56.81 56.39 55.78 58.15 58.15 59.39 59.58 58.60 58.48 55.84 52.67 56.42 56.35 60.50 61.79 59.98 59.20 60.24 61.16 54.53 49.06 46.88 46.42 46.65 47.65 49.09 49.94 50.38 50.93 51.29 51.89 52.18 52.80 53.22 53.49 53.32 52.36 51.44
55.57 54.72 54.74 55.25 56.10 55.89 57.12 57.71 57.01 57.00 53.90 55.14 58.92 60.03 58.00 59.79 60.24 61.38 60.43 61.52 57.25 45.91 46.57 45.93 45.26 45.87 46.04 45.84 46.43 47.21 47.67 47.15 46.62 46.46 46.62 46.33 46.54 46.75
54.56 53.88 53.52 54.24 54.85 54.82 57.30 55.46 57.18 57.78 53.77 51.57 54.82 56.40 56.18 56.20 59.69 58.31 58.81 56.90 56.49 44.29 43.59 43.05 42.59 42.18 42.18 42.49 42.39 41.79 41.02 40.65 40.16 39.86 39.83 40.32 40.68 41.34
54.32 53.89 53.58 53.53 53.14 53.71 54.64 55.73 56.98 55.42 54.23 53.02 52.33 55.25 58.57 58.24 54.69 55.27 56.09 51.90 45.72 42.49 40.77 39.87 39.97 40.18 40.33 40.44 39.94 38.64 37.16 36.19 35.41 35.04 34.85 34.67 35.32 36.25
53.88 53.70 53.72 53.76 53.88 53.72 53.99 54.70 55.39 54.10 53.93 53.35 53.02 53.44 54.70 55.73 54.58 52.97 47.73 46.83 43.44 42.57 38.13 36.55 37.70 38.00 37.62 36.94 36.43 35.93 35.44 34.75 33.94 33.37 32.64 32.13 31.99 32.44
53.84 53.44 53.96 52.83 48.92 51.00 53.00 53.56 54.17 54.15 52.98 52.25 51.99 52.90 53.10 50.85 50.15 52.84 49.72 38.50 35.69 38.65 34.79 33.36 33.74 34.04 35.12 34.95 34.04 33.71 33.60 33.32 32.07 30.94 30.02 29.50 29.26 29.35
52.82 53.21 53.35 48.62 47.78 43.95 43.85 42.55 48.04 52.90 51.88 51.54 51.19 50.56 51.39 50.42 47.48 46.54 39.15 35.83 33.39 34.20 32.59 29.96 32.30 30.94 32.72 32.43 32.18 32.13 32.02 30.33 29.21 28.55 28.41 28.30 28.24 28.41
53.31 53.13 52.39 51.05 48.76 49.36 38.88 36.49 35.21 34.11 34.56 48.98 51.00 51.05 47.67 45.96 42.04 39.85 36.57 34.62 30.30 28.13 30.19 26.10 29.77 27.79 31.18 31.98 30.64 29.57 28.74 27.81 27.15 27.10 27.12 27.20 27.29 27.41
53.52 53.15 52.65 51.56 49.76 44.81 40.29 35.83 33.65 33.62 34.50 34.98 34.84 32.78 33.68 35.19 38.34 38.06 34.13 26.87 26.61 26.13 29.01 24.83 27.53 26.61 29.93 30.54 29.16 27.92 27.33 26.03 26.26 26.25 26.06 26.13 26.24 26.20
56.15 56.30 55.65 54.26 45.93 40.73 38.30 32.72 30.45 29.74 31.76 31.59 31.07 30.75 30.31 30.96 32.99 31.45 28.91 27.89 23.66 22.29 25.06 26.48 24.88 26.26 27.83 30.62 30.84 27.08 25.65 25.16 25.75 25.52 25.64 25.50 25.73 25.62
38.81 38.53 35.13 44.90 38.38 37.12 38.01 32.49 27.67 26.48 26.28 25.12 24.59 25.69 26.40 26.63 27.08 28.03 29.86 25.15 23.22 21.60 23.57 25.45 26.53 26.02 25.11 28.33 29.16 28.28 28.34 26.91 26.02 26.08 25.64 25.90 25.75 27.41
32.70 32.10 32.90 33.71 33.84 34.08 33.35 29.29 24.95 24.31 23.60 23.06 22.45 22.40 22.58 22.90 23.20 23.63 25.00 26.78 23.23 20.33 22.41 26.47 23.41 23.76 23.44 23.37 26.57 27.82 26.79 28.04 28.16 28.40 27.35 26.92 26.11 25.97
31.33 31.12 31.62 31.88 31.48 30.27 28.28 27.66 26.36 24.30 23.16 21.79 21.02 20.66 20.84 21.11 22.58 22.45 23.05 22.71 23.94 22.91 23.96 25.58 21.74 22.49 22.45 22.51 22.73 25.97 26.74 27.62 28.18 27.24 28.25 27.75 27.16 27.13
29.63 29.45 29.19 28.58 27.65 26.43 26.18 25.31 24.28 23.60 22.89 21.72 19.81 19.64 21.26 22.52 22.78 21.75 22.22 21.80 21.64 21.71 22.33 22.70 22.31 21.78 21.83 21.67 21.91 24.24 23.50 25.62 27.44 26.82 26.96 26.61 26.63 27.89
24.44 24.14 24.16 24.45 24.91 25.27 25.13 25.08 25.84 26.23 24.12 21.46 21.13 21.09 21.83 21.16 20.53 21.80 20.36 20.28 19.10 18.43 20.91 21.50 22.05 22.57 23.48 24.10 23.81 23.61 24.58 22.44 26.01 26.01 25.59 26.25 27.97 29.21
28.22 28.64 27.90 27.28 27.57 26.77 25.40 25.13 25.78 25.93 24.13 23.18 22.42 21.54 20.69 20.38 19.65 20.32 20.33 21.23 20.04 19.80 20.20 22.54 23.56 23.50 23.18 21.93 22.84 24.08 23.37 23.60 25.16 24.66 24.30 24.77 27.28 29.07
31.48 29.46 27.82 27.65 26.43 25.58 24.59 23.78 24.17 23.36 23.54 23.30 22.63 22.06 20.95 20.66 20.44 21.61 22.69 21.80 20.25 20.29 19.97 20.80 22.25 23.54 24.65 23.18 21.88 22.16 22.69 22.23 23.52 24.16 25.15 23.24 24.72 28.59
27.98 26.44 25.87 25.57 25.11 24.41 23.46 22.81 21.55 22.10 22.51 22.65 22.14 21.58 21.21 20.27 20.93 20.69 21.17 21.20 20.27 20.90 21.23 22.18 21.62 20.59 20.09 19.42 23.19 18.82 20.05 20.87 22.26 23.18 23.78 23.59 23.76 26.78
26.40 25.10 24.60 24.50 24.03 23.04 22.14 21.60 21.46 21.51 21.17 21.26 21.18 21.03 21.34 21.31 20.49 19.76 20.39 20.20 21.15 21.51 21.81 22.53 21.00 18.60 17.65 16.98 16.89 21.54 22.74 20.52 21.02 20.95 21.74 23.77 25.84 25.79
23.46 22.90 23.35 22.45 21.92 21.59 21.30 21.04 20.48 19.69 19.71 19.53 19.53 19.39 20.36 20.37 18.90 19.12 16.84 14.31 17.65 20.54 19.81 19.74 19.44 14.06 19.72 21.66 20.03 20.89 22.66 22.66 21.13 20.12 20.55 20.71 22.54 26.77
22.19 21.32 21.41 21.39 21.08 20.53 20.13 19.34 19.32 18.93 18.61 18.65 18.42 19.06 19.98 20.09 18.24 17.95 18.76 19.74 18.52 19.13 18.94 20.41 20.79 20.80 20.43 18.12 17.37 17.42 20.53 22.76 24.41 24.16 23.47 21.75 22.71 25.09
20.84 20.63 20.48 20.32 20.46 20.17 19.96 19.21 18.35 18.26 17.66 17.65 17.87 17.53 18.47 18.23 18.85 18.79 18.91 18.12 16.62 17.37 17.32 18.08 19.50 20.70 19.07 18.54 16.46 18.42 18.70 20.71 22.90 23.81 28.02 25.36 24.37 23.40

GFSNE_sfc_wetblb_111.txt.gz
Wetbulb
57.16 57.18 56.42 56.99 57.48 58.61 58.42 58.02 55.88 51.79 52.65 57.55 57.55 59.57 60.04 60.65 59.08 60.79 61.73 53.52 49.14 48.67 48.62 49.52 50.94 51.99 52.53 53.10 53.59 54.13 54.82 55.21 55.45 55.72 55.74 56.15 56.42 56.58
56.88 56.23 56.48 56.55 56.86 57.35 56.52 56.54 59.29 56.50 53.02 56.80 57.53 60.78 61.76 60.67 59.93 61.89 61.52 55.18 48.83 47.21 46.67 46.67 47.73 49.25 50.09 50.46 50.84 51.16 51.45 51.64 51.78 52.09 51.97 51.42 51.26 50.29
56.41 55.73 55.71 56.19 55.83 56.34 56.41 57.42 54.60 56.64 53.49 56.07 58.31 60.84 60.18 59.58 58.48 60.99 60.43 61.50 51.79 46.14 46.49 46.13 45.75 46.04 46.24 46.27 46.22 46.29 45.73 46.05 46.16 46.14 46.35 46.65 46.32 45.91
55.47 55.67 55.27 54.96 54.03 55.12 54.97 54.34 56.36 55.83 56.09 54.48 57.39 58.46 58.58 58.42 56.65 56.68 58.16 58.30 49.83 42.68 42.08 42.04 42.27 42.25 41.90 41.55 40.86 39.94 39.25 38.96 38.93 38.80 39.14 39.38 40.18 40.43
55.07 54.77 54.72 54.30 53.32 53.51 53.98 54.09 55.46 55.69 55.44 52.73 54.71 57.52 57.76 57.12 54.64 55.14 51.97 47.74 42.97 40.87 39.94 40.41 40.96 41.06 39.95 38.88 38.21 37.71 37.32 36.32 35.29 34.46 33.84 33.64 34.13 34.96
54.83 54.66 54.08 53.87 53.66 53.35 53.28 53.52 53.86 53.44 53.64 53.42 54.56 54.42 53.17 54.76 54.15 53.44 48.78 45.82 42.53 39.47 38.57 38.56 38.39 38.33 37.85 37.05 36.48 35.97 35.56 34.40 33.10 31.96 30.77 30.48 30.20 30.77
53.69 54.02 53.99 52.65 49.12 51.28 53.54 53.35 53.22 52.95 52.78 52.78 53.05 52.48 51.42 52.74 50.52 51.45 49.29 38.03 37.44 37.10 35.18 34.35 34.86 34.77 34.68 34.70 34.81 34.52 33.18 31.69 30.71 29.86 29.54 29.15 29.05 29.45
52.28 52.90 53.17 48.22 47.89 45.21 45.68 45.91 50.72 52.39 51.67 51.44 51.55 49.32 51.71 50.62 51.05 50.16 41.52 36.26 34.67 35.94 32.75 30.53 32.74 32.32 32.24 32.54 32.88 32.10 30.51 29.52 28.96 28.63 28.41 28.47 28.32 28.37
52.81 52.92 52.35 52.43 49.80 52.12 40.04 38.69 36.18 35.45 34.71 49.38 51.36 50.25 48.70 45.80 48.79 43.60 38.72 36.70 33.41 30.44 31.18 27.38 30.60 29.53 31.71 31.68 31.16 30.17 28.80 27.60 27.44 27.72 27.63 27.52 27.38 27.43
53.72 54.16 53.55 52.09 51.74 48.92 41.60 35.49 33.03 33.45 33.90 34.72 33.42 32.53 33.66 35.81 36.93 36.39 32.86 27.13 27.66 27.30 30.20 25.17 28.54 27.28 30.62 30.07 30.47 28.91 27.95 27.12 26.71 26.90 26.93 26.88 26.80 26.90
53.46 53.90 53.55 52.79 45.18 42.82 38.43 31.92 29.75 29.24 31.50 31.78 31.29 31.28 31.31 32.06 33.45 32.98 29.67 29.44 24.75 23.68 25.03 26.07 25.89 26.67 28.33 29.58 28.91 28.39 26.73 26.82 26.94 26.89 26.66 26.62 26.88 27.22
36.75 35.19 34.76 41.78 39.47 38.74 37.04 32.75 28.25 26.49 26.18 25.85 26.17 26.32 26.77 27.02 27.48 29.85 31.21 26.25 23.64 22.27 24.80 25.42 25.07 26.42 25.35 29.54 29.96 29.19 28.72 28.35 27.41 27.93 27.24 27.57 27.68 26.64
33.29 32.32 33.15 34.72 35.20 34.62 34.17 31.60 27.31 25.47 24.55 24.24 23.60 23.56 23.51 23.33 23.79 24.87 26.05 27.46 24.12 22.00 24.80 27.44 25.60 23.93 24.89 23.52 25.82 27.77 27.86 28.40 27.95 28.35 28.89 28.93 28.49 28.01
31.33 31.39 31.87 32.75 32.09 30.97 29.21 28.43 26.88 25.02 24.19 23.49 22.91 22.21 22.59 22.54 23.66 24.19 25.17 25.68 26.23 25.22 26.93 27.53 23.83 24.08 23.19 22.26 22.58 25.99 27.33 28.21 28.02 27.00 28.05 28.48 28.56 29.02
28.72 28.81 28.76 28.60 27.77 26.63 27.08 26.35 25.52 24.30 23.53 22.23 21.90 22.29 23.34 23.87 24.35 24.12 23.76 23.78 23.69 23.89 24.26 24.88 24.06 23.08 23.78 22.57 22.35 23.83 24.00 25.86 27.37 27.40 27.33 26.69 26.59 28.39
25.57 25.98 26.01 25.77 25.51 26.13 27.12 26.86 26.19 26.05 25.58 23.81 23.30 24.51 25.31 24.83 23.54 24.81 23.38 23.31 22.37 21.34 23.44 23.92 23.80 23.95 24.01 24.60 23.97 24.01 25.05 22.59 26.06 26.26 26.08 26.99 28.59 29.65
28.62 28.94 27.56 26.96 26.26 26.21 26.80 26.85 26.98 26.39 25.98 26.15 24.94 23.68 22.94 23.03 22.84 24.24 24.11 24.35 22.83 22.51 22.67 24.77 25.97 25.21 25.04 23.49 23.62 24.53 23.91 24.23 25.35 25.07 25.43 25.48 27.78 29.69
31.25 29.53 29.14 29.28 28.03 26.87 25.90 25.68 26.14 25.70 25.36 24.97 24.72 24.22 23.56 23.46 23.58 24.52 25.16 24.39 23.05 22.83 22.81 24.07 24.99 25.78 25.68 24.78 23.13 23.06 23.41 23.10 24.12 25.17 25.71 23.74 24.57 28.95
28.82 28.46 27.98 27.82 27.03 25.97 25.70 24.99 23.63 24.63 25.32 25.26 24.72 24.08 23.28 22.92 23.86 23.38 23.61 23.41 22.33 22.95 23.00 23.95 23.30 22.16 21.15 20.67 23.86 19.56 21.26 22.10 22.65 23.00 24.07 23.71 23.45 26.26
28.11 27.12 26.70 26.08 25.54 24.67 24.33 23.93 23.96 24.17 24.18 23.97 24.02 23.95 24.13 23.49 22.68 22.32 22.64 22.27 22.14 22.23 22.59 23.45 22.33 19.59 18.25 17.77 18.22 22.42 24.48 21.89 21.49 20.67 21.27 23.43 25.66 27.10
25.19 24.72 25.20 24.74 24.46 24.06 24.00 23.60 23.09 22.77 22.92 22.73 22.68 22.39 23.08 22.54 21.04 20.34 18.03 16.84 17.74 21.32 20.61 20.86 21.14 16.37 20.95 23.38 20.71 21.48 23.79 25.48 23.41 22.12 22.24 21.17 21.95 25.81
24.09 23.31 23.43 23.71 23.24 22.83 22.68 22.29 22.29 21.92 21.45 21.56 21.72 21.99 22.47 21.76 19.95 19.62 20.17 20.44 19.67 20.07 20.29 21.84 22.74 22.65 21.84 20.12 18.74 19.11 21.65 23.94 26.52 26.83 25.40 23.91 23.24 23.46
23.06 22.93 22.90 22.82 22.94 22.88 22.37 21.73 20.92 20.76 20.45 20.30 20.19 20.15 20.64 19.73 20.08 19.89 19.77 19.25 18.09 18.53 18.96 18.87 21.12 22.30 21.06 20.96 18.60 19.84 20.72 21.70 23.41 23.68 26.50 28.34 26.29 25.31

GFSNE_sfc_wetblb_114.txt.gz
Wetbulb
56.54 56.80 56.80 57.15 57.46 56.92 56.52 55.61 52.52 48.30 49.23 52.98 53.63 57.48 57.52 57.47 56.40 56.74 56.90 50.79 48.60 48.27 48.76 49.91 51.37 52.29 52.46 53.10 53.36 53.79 54.13 54.29 54.47 54.54 54.56 54.98 54.97 54.04
56.65 56.41 56.19 56.77 56.53 56.91 56.25 55.21 55.13 52.22 48.77 54.27 54.97 56.69 57.56 58.57 57.34 57.91 58.26 50.23 47.36 46.70 46.63 46.79 47.40 49.03 49.69 50.05 50.40 50.88 50.77 50.80 51.12 51.37 51.70 51.38 50.71 50.01
56.21 56.13 55.85 56.35 55.99 56.01 55.99 54.84 53.91 53.75 50.42 53.02 55.02 57.15 57.03 56.88 57.16 57.97 57.83 51.67 47.22 45.65 45.40 45.45 45.73 46.05 46.23 46.19 46.16 47.08 47.24 47.23 46.84 46.82 46.80 46.43 45.99 45.35
55.57 55.71 55.49 55.87 55.43 55.85 55.17 54.31 54.24 54.04 52.02 51.40 53.31 54.58 55.25 56.18 55.49 54.86 56.27 50.30 44.81 43.14 42.84 42.90 42.88 42.31 42.00 41.41 41.11 41.06 40.91 40.57 40.02 39.62 39.69 39.51 39.73 39.73
55.79 55.37 55.33 55.15 54.57 55.01 54.53 53.35 53.12 54.09 53.63 52.04 51.33 53.12 53.86 54.55 54.08 53.24 46.14 42.26 41.68 41.96 41.28 41.30 41.28 40.69 39.94 39.54 39.28 38.42 37.26 35.75 34.98 34.10 33.38 33.15 33.65 34.01
55.35 55.83 55.63 54.93 53.68 53.77 53.88 53.57 53.11 52.65 52.42 52.06 51.85 51.85 52.17 53.27 53.07 50.66 46.20 42.34 40.27 39.91 39.83 38.94 38.90 38.93 38.52 37.79 37.29 36.45 35.37 34.21 32.93 32.01 31.13 30.54 30.09 30.50
54.30 54.54 54.77 53.84 49.92 51.56 53.20 52.79 52.89 51.96 51.41 50.65 50.07 50.66 50.47 50.19 50.06 50.69 46.50 39.29 36.65 36.65 35.78 36.14 35.52 34.85 35.44 36.07 35.74 34.45 33.06 31.43 30.57 29.93 29.58 29.20 29.26 29.58
52.35 52.79 52.55 48.03 47.51 45.39 46.11 46.48 50.47 51.73 50.86 50.61 50.24 48.39 50.09 49.65 49.33 48.57 40.18 36.38 35.17 36.14 32.83 30.98 33.62 32.25 32.18 32.81 33.53 31.87 30.53 29.62 29.22 29.05 28.47 28.17 28.35 28.47
52.15 52.12 51.59 51.21 48.34 50.09 40.44 37.69 36.17 36.13 37.35 50.56 50.03 48.46 47.35 47.17 47.38 45.73 40.84 37.36 34.68 31.38 31.49 27.72 31.06 29.68 31.65 32.28 32.11 30.79 29.50 28.01 28.13 27.95 27.79 27.69 27.68 27.83
52.21 52.23 51.97 50.47 50.53 47.71 40.11 34.49 32.67 32.80 34.00 34.63 34.60 32.49 33.42 35.60 36.87 35.56 33.41 28.25 28.58 28.00 31.13 25.75 28.83 28.02 29.40 30.58 31.58 30.56 29.01 27.76 27.07 27.44 27.11 27.15 27.60 27.96
50.10 43.19 49.69 50.88 44.03 41.95 38.03 32.65 30.09 29.93 32.78 32.84 32.25 32.02 32.02 32.69 34.08 34.24 30.91 30.64 25.96 24.98 26.38 26.42 26.89 26.84 29.02 28.57 30.07 30.49 28.93 28.08 27.99 28.07 27.81 27.62 28.12 28.27
35.61 35.28 34.90 41.84 38.68 38.24 37.81 33.45 28.79 27.22 26.89 26.44 26.16 26.24 27.04 27.76 28.31 29.27 31.92 29.35 25.09 23.51 25.15 24.87 25.56 26.53 24.56 29.19 29.78 29.40 28.25 29.82 28.89 28.96 28.95 28.97 29.16 26.28
32.50 32.10 32.67 34.28 35.97 35.33 35.89 33.65 28.52 26.23 24.90 24.80 24.50 24.40 24.47 24.35 24.67 25.87 26.50 27.69 24.21 22.28 25.56 27.48 25.42 24.63 24.77 24.12 26.31 27.72 27.41 26.34 25.98 26.75 28.99 29.02 29.28 28.12
30.23 30.94 31.53 32.39 31.84 31.21 29.73 29.35 27.93 26.24 25.57 24.15 23.02 22.10 21.70 21.86 22.86 23.57 24.40 24.83 26.15 25.32 26.73 27.19 24.93 24.32 23.87 21.86 21.27 23.66 24.47 24.74 24.30 23.73 24.70 27.04 28.07 28.94
28.70 29.39 29.32 29.21 28.69 27.73 28.08 27.51 26.11 25.32 24.17 21.99 20.87 20.78 22.01 23.27 23.69 23.03 23.35 22.98 23.23 23.83 24.58 24.91 23.24 22.54 23.06 21.26 20.01 21.20 21.13 22.26 23.16 22.65 22.95 22.78 22.61 24.15
26.10 26.74 26.85 26.62 25.88 25.47 26.15 26.89 25.75 24.79 23.55 23.03 22.87 23.64 24.59 23.65 22.58 22.68 21.46 21.12 19.33 18.49 22.44 22.83 22.63 22.38 19.89 20.87 20.51 19.60 20.35 17.43 21.17 21.78 21.91 23.04 24.49 25.53
28.02 27.71 26.88 26.33 25.52 25.39 25.38 25.73 26.30 25.79 24.28 24.22 23.03 22.03 21.31 21.13 20.38 21.19 21.44 20.41 17.66 17.77 18.70 21.67 22.73 22.61 21.32 21.26 19.05 19.29 18.94 19.24 19.42 20.80 21.86 21.41 23.27 26.31
28.88 27.02 26.24 25.86 24.85 24.67 23.90 23.36 23.79 23.27 22.90 22.72 21.19 21.76 20.87 20.15 20.24 21.11 21.54 19.14 17.21 18.11 18.06 19.45 19.93 20.65 21.94 21.81 23.26 18.89 17.62 17.85 19.58 21.56 22.77 19.89 20.76 24.50
25.99 25.67 25.07 24.28 23.28 22.77 22.00 21.40 20.77 22.04 23.36 22.19 20.74 19.47 18.89 19.90 19.61 19.71 19.25 19.54 18.49 17.76 17.30 18.67 18.53 16.40 14.38 11.22 19.75 22.26 16.17 18.92 18.37 17.36 19.83 19.29 18.16 21.81
24.88 23.42 22.34 22.14 21.88 21.39 21.34 21.14 21.29 20.91 20.76 20.78 18.97 17.41 15.82 18.00 16.96 18.31 18.39 13.69 15.89 18.27 18.41 19.01 16.27 14.83 10.34 7.77 8.14 16.02 25.28 18.02 15.45 13.38 14.91 18.86 21.48 25.39
21.73 21.30 21.24 21.07 20.49 19.97 18.72 18.44 18.20 18.14 17.35 16.53 16.94 16.74 14.06 15.57 13.76 14.11 12.01 11.39 11.41 18.10 16.93 16.14 16.19 15.96 17.16 16.97 7.80 11.15 17.04 25.41 22.56 16.44 15.97 15.58 17.22 18.95
20.60 20.35 20.46 19.97 19.03 18.22 15.83 14.28 14.77 15.26 15.57 15.38 12.65 12.45 11.63 12.65 11.21 12.99 12.24 12.28 14.83 14.56 16.33 17.96 19.82 19.06 17.41 17.45 12.38 7.24 14.90 17.28 23.69 26.83 27.62 24.08 17.19 15.47
19.41 19.33 18.96 18.40 18.71 18.23 18.17 16.73 15.66 13.55 14.05 13.61 12.86 12.15 11.15 10.01 13.54 12.84 12.00 13.05 13.26 13.67 14.67 14.40 17.35 17.58 17.67 18.74 13.77 12.48 12.87 12.74 18.08 17.58 19.85 27.98 27.78 26.69

GFSNE_sfc_wetblb_117.txt.gz
Wetbulb
56.41 56.57 56.93 57.23 57.33 56.95 55.79 54.82 52.46 49.48 51.18 52.18 52.77 55.71 56.73 56.78 56.67 54.81 55.02 50.47 48.88 48.74 49.27 50.60 51.96 52.82 53.06 53.60 53.80 54.05 54.23 54.31 54.53 54.23 53.90 53.80 54.03 53.37
56.41 56.31 56.55 57.13 57.27 56.61 56.03 55.32 54.59 52.19 49.83 53.28 53.91 55.52 56.22 56.91 54.75 56.15 51.34 48.96 47.41 47.18 46.84 47.48 48.43 50.02 50.47 50.64 50.87 51.05 51.60 51.68 51.90 52.28 52.52 52.32 50.95 51.95
56.23 56.21 55.97 56.69 56.57 56.31 55.83 54.95 54.27 53.54 50.69 52.83 54.46 55.54 55.14 56.09 56.15 54.81 52.25 49.87 47.65 45.93 46.15 47.23 46.26 46.66 47.40 47.58 48.17 48.99 49.24 49.19 49.64 49.14 48.38 47.53 47.06 46.46
55.65 55.83 55.67 56.11 55.99 56.15 55.75 54.78 54.46 53.77 52.05 51.54 52.89 53.91 54.41 55.49 55.25 53.84 50.24 46.93 45.89 43.99 44.08 44.26 43.71 43.41 43.46 43.42 43.51 43.56 43.51 43.43 43.10 42.58 42.08 41.50 40.98 40.16
55.67 55.67 55.56 55.57 55.15 55.19 54.90 54.45 54.41 54.14 53.17 51.52 51.44 52.83 53.53 54.75 51.49 47.23 43.01 42.00 42.55 42.82 41.61 41.38 41.60 41.44 41.16 40.83 40.28 39.15 38.05 36.81 35.80 34.97 34.69 34.39 34.58 34.84
55.77 55.77 55.65 55.50 55.18 54.90 54.31 54.25 53.46 53.32 52.65 51.71 51.22 51.36 51.87 52.64 52.54 47.34 43.40 41.14 39.68 40.65 40.10 39.61 39.90 40.10 39.61 38.70 37.66 37.05 36.01 35.08 34.04 32.87 32.03 31.25 30.81 31.28
54.89 55.51 55.73 54.50 50.49 53.10 54.88 54.44 53.55 52.64 52.31 51.46 50.14 49.84 49.68 49.61 49.98 49.73 45.39 38.86 36.47 37.43 36.67 36.87 36.67 36.51 36.86 36.64 35.94 34.83 33.30 32.23 31.59 31.05 30.26 29.78 29.51 29.78
52.87 53.17 53.31 48.88 47.98 45.33 46.24 46.96 51.91 52.77 51.42 50.42 49.30 47.79 48.81 49.33 49.13 48.63 39.58 37.24 35.66 36.59 33.91 31.78 33.85 32.03 32.51 32.90 33.47 32.00 30.89 30.60 30.33 29.58 29.06 28.94 28.75 28.49
52.48 51.99 51.02 50.84 48.68 49.42 38.53 37.59 36.67 37.26 40.45 50.94 48.96 47.97 47.29 48.35 48.41 46.22 41.49 38.03 35.53 33.32 32.22 28.66 31.33 29.83 32.12 32.51 32.31 31.36 29.62 28.71 28.77 28.16 28.04 27.77 27.88 28.20
52.19 52.23 51.50 49.86 49.33 43.75 38.92 34.60 33.35 33.49 34.68 36.52 38.00 33.73 34.09 36.05 38.16 37.80 35.69 29.47 29.79 29.41 31.82 26.34 29.30 28.19 29.97 31.27 32.59 31.76 29.74 27.68 27.47 27.73 27.54 27.57 28.13 28.62
45.75 43.28 51.05 50.32 41.49 41.01 36.69 32.21 30.59 30.43 33.29 33.53 33.41 33.04 33.11 33.60 34.56 35.26 31.96 32.09 27.44 26.39 28.42 27.71 27.31 27.28 28.18 28.75 30.97 30.79 28.54 28.32 28.73 28.73 28.14 27.72 28.56 28.47
34.50 34.48 34.43 42.00 38.24 37.62 37.04 33.95 29.83 27.90 27.62 27.57 27.10 27.34 28.07 28.70 28.81 29.91 33.40 31.84 26.54 24.82 26.18 25.29 26.42 26.64 24.54 28.80 29.15 28.69 28.44 29.82 30.21 29.63 29.06 29.17 29.20 25.58
32.27 31.87 32.64 34.83 36.11 36.34 36.95 35.07 30.33 27.18 26.33 25.70 25.07 24.75 24.86 24.79 25.12 26.20 27.52 30.46 26.02 23.29 26.11 27.93 25.38 25.39 25.54 24.64 26.11 27.59 27.53 26.89 24.95 25.32 28.64 28.61 28.82 27.66
29.65 30.57 31.79 32.90 32.36 31.57 29.91 29.59 28.56 27.21 25.99 24.48 23.22 22.16 21.97 22.12 23.01 24.34 25.34 26.00 26.93 26.25 27.98 28.51 25.70 25.25 23.18 21.74 20.68 22.86 22.88 23.15 23.03 23.30 23.42 25.92 27.19 28.15
29.46 30.04 30.11 29.85 29.37 28.55 28.88 28.14 27.01 25.71 24.15 22.33 21.20 21.12 21.91 22.80 23.24 22.94 23.31 23.69 23.44 23.89 24.67 24.83 23.59 22.99 21.61 19.36 18.35 18.91 18.80 20.92 22.03 21.72 21.93 21.88 21.91 23.08
26.70 26.58 26.68 26.80 26.68 26.04 26.00 25.86 25.57 25.09 23.69 22.34 22.12 23.21 24.30 23.44 22.53 22.28 19.78 19.52 18.71 18.43 22.76 23.05 22.90 22.59 19.04 20.01 20.09 18.40 19.44 16.74 20.28 20.80 21.33 22.31 23.47 24.30
28.09 27.43 26.17 25.50 24.75 24.89 25.09 25.02 25.08 24.88 23.52 23.61 23.14 22.34 22.09 22.31 20.97 21.65 20.93 19.66 17.34 17.08 17.55 20.87 22.18 22.34 21.18 21.33 17.80 18.26 18.57 18.59 18.30 19.81 20.78 20.60 22.44 25.54
27.27 25.07 24.24 24.05 23.30 23.16 22.76 22.79 23.43 23.17 23.04 22.60 22.04 21.69 20.62 19.87 20.37 20.99 20.14 18.18 17.13 17.50 17.61 18.50 18.22 19.06 21.19 21.48 23.41 17.98 16.61 15.95 18.16 20.28 21.28 17.46 19.14 22.57
24.06 23.05 22.01 21.67 21.46 21.27 21.54 21.33 20.47 21.22 21.66 20.37 19.71 19.09 19.33 19.63 19.39 18.87 18.10 18.21 16.98 16.47 16.55 17.11 15.98 13.65 11.80 7.72 18.83 23.12 13.62 16.99 16.36 14.84 17.89 17.45 15.86 20.02
21.98 20.82 20.13 20.51 20.65 20.34 20.25 19.75 19.89 19.45 19.29 18.62 16.56 15.19 15.57 16.90 15.90 15.72 14.93 10.03 13.72 17.08 16.58 16.19 13.85 13.51 8.55 6.41 5.50 13.45 24.17 16.57 14.29 11.63 12.79 16.62 20.03 24.24
19.92 19.20 18.77 18.65 18.31 17.99 17.33 17.14 16.71 13.60 14.59 13.96 14.02 14.49 10.08 13.58 11.64 12.26 11.99 10.05 13.16 16.81 15.04 14.21 14.77 15.08 16.08 14.57 5.12 7.91 15.42 24.37 22.58 15.37 13.28 10.69 13.08 16.79
19.62 19.22 18.81 17.74 16.89 15.75 13.35 12.58 14.25 13.69 13.76 13.89 9.57 7.94 6.54 11.20 9.38 10.06 9.46 9.77 13.03 12.82 14.41 16.16 18.85 17.76 15.85 16.06 10.74 2.42 11.84 14.77 21.28 24.98 26.58 23.86 17.61 12.70
16.50 16.73 16.43 16.19 16.23 15.61 15.59 13.55 12.08 10.65 10.81 9.42 9.81 9.91 7.13 7.98 10.85 10.45 9.87 10.12 11.84 11.53 12.28 12.02 14.86 15.95 15.96 17.36 13.24 10.61 10.23 9.71 15.85 15.09 14.97 24.10 25.24 27.87

GFSNE_sfc_wetblb_123.txt.gz
Wetbulb
58.15 57.87 57.71 57.92 57.75 57.76 57.20 56.69 54.47 50.61 51.56 53.58 54.24 57.34 57.73 57.40 56.13 55.61 56.02 50.74 48.95 48.80 48.96 50.43 52.73 54.21 54.89 55.68 56.38 57.11 57.90 57.99 57.78 57.30 56.95 56.51 55.98 56.03
58.04 57.48 57.35 57.53 56.40 57.25 56.79 56.84 56.56 54.18 51.59 53.70 53.97 56.00 57.11 56.98 55.49 56.01 55.22 51.14 47.90 47.31 46.99 47.75 49.27 51.14 52.10 52.51 52.89 53.32 54.08 54.16 54.59 54.77 54.63 53.94 54.31 54.94
57.18 56.78 56.55 56.81 56.44 56.60 56.46 55.82 54.41 54.78 52.36 52.71 54.86 55.01 54.81 55.80 52.77 52.01 51.41 50.02 47.40 45.89 45.70 46.13 46.42 47.44 48.39 48.82 49.23 50.09 50.91 51.37 51.81 52.77 53.29 53.67 52.03 50.32
56.16 55.97 55.94 56.38 56.32 56.64 56.14 55.26 54.98 54.56 52.95 51.76 52.88 53.34 53.43 53.25 51.78 50.82 49.60 48.77 47.95 45.92 46.35 45.10 44.90 44.90 44.54 44.31 44.44 44.79 45.11 45.83 46.51 47.08 47.22 46.54 45.21 44.34
56.24 55.98 55.68 55.70 55.53 55.91 55.80 55.12 55.24 54.80 53.63 52.63 51.71 52.60 52.69 49.42 45.38 44.95 43.33 43.00 43.32 43.78 43.43 43.81 43.40 42.90 42.38 42.07 41.72 41.02 40.38 39.78 39.14 38.86 38.85 38.50 38.40 38.39
56.16 56.20 55.96 55.66 55.38 55.59 55.07 54.68 54.44 53.67 53.36 52.54 51.72 51.84 51.67 50.33 47.94 43.17 40.46 40.95 39.09 40.66 40.85 40.44 40.55 40.97 40.35 39.72 39.33 38.75 38.00 37.27 36.10 34.79 34.09 33.43 33.45 33.54
55.62 55.66 55.94 54.50 50.57 52.87 55.00 54.34 53.91 53.30 52.59 51.71 51.45 49.78 50.46 48.72 47.15 46.21 41.49 37.93 36.72 38.09 37.63 37.68 37.44 37.28 37.43 37.84 37.75 37.28 36.45 35.65 34.54 33.31 32.19 31.42 30.97 30.78
54.23 54.49 55.00 49.41 49.05 45.36 46.44 46.99 51.67 53.26 52.01 51.30 51.20 50.65 50.95 51.37 48.74 46.18 38.50 37.04 36.41 37.45 34.16 32.41 34.88 32.44 32.73 33.40 35.35 35.16 34.38 33.47 32.77 31.93 31.24 30.40 29.38 28.87
54.37 53.89 53.42 52.88 49.45 51.94 41.53 41.73 38.62 40.26 42.28 52.65 50.85 50.81 49.65 51.33 49.85 44.46 41.44 39.27 37.71 35.32 33.80 29.82 31.82 30.08 32.76 33.84 34.25 33.51 32.61 31.66 31.01 30.72 29.94 28.91 28.56 28.63
53.57 53.59 52.97 51.49 50.82 45.49 40.84 36.33 34.52 35.02 37.05 42.06 50.55 43.64 44.96 48.98 50.81 47.94 42.02 32.44 32.36 32.05 33.24 27.92 30.18 29.08 30.98 31.98 33.26 32.21 31.46 30.58 30.06 29.20 28.63 28.24 28.43 28.75
48.87 49.21 51.98 49.70 39.87 41.05 38.00 33.56 31.96 31.23 34.65 35.48 35.18 34.88 34.96 35.73 39.19 41.61 35.69 36.12 30.33 29.80 30.58 28.88 27.78 27.90 29.51 30.27 31.92 32.07 31.01 29.94 29.64 29.44 28.52 28.50 28.71 28.89
36.56 37.10 35.50 44.92 36.94 37.30 37.78 35.62 32.68 29.95 30.08 31.10 30.46 30.01 30.84 31.86 31.83 34.27 39.36 37.68 28.48 27.10 29.99 27.59 27.19 26.93 24.27 28.44 29.31 29.63 29.28 30.05 29.87 29.76 30.21 30.19 29.44 25.60
34.05 33.15 33.53 36.24 36.72 37.16 37.54 37.02 33.84 29.96 28.58 28.35 27.58 27.33 27.26 26.95 27.33 28.81 30.42 34.11 31.80 28.05 29.10 29.40 27.15 27.15 26.03 25.15 26.75 27.52 27.83 27.55 28.17 26.42 28.45 28.21 28.33 26.74
31.42 32.02 33.36 34.97 34.63 33.72 32.44 31.43 30.30 29.29 28.70 27.35 25.94 24.30 23.75 23.57 24.73 26.23 27.88 28.73 29.94 29.78 29.87 29.85 27.66 26.91 24.76 23.61 22.65 26.19 26.31 25.62 23.49 22.98 22.52 24.60 26.34 27.25
31.42 31.95 32.14 31.89 31.28 30.26 30.58 29.92 29.23 28.49 27.30 24.85 22.43 21.60 22.37 23.70 24.94 25.60 25.90 25.90 25.51 26.21 27.72 29.02 28.43 27.62 25.71 23.20 21.90 21.41 19.28 21.01 21.81 20.70 20.92 21.08 21.54 22.41
26.83 26.57 26.60 26.72 26.60 26.21 26.27 26.65 26.51 26.61 25.26 23.37 22.19 22.52 23.58 22.95 22.50 24.13 23.22 23.40 22.04 21.08 23.88 25.66 26.08 24.48 20.77 20.99 20.52 18.15 19.09 16.54 18.68 19.34 20.29 21.42 22.97 23.93
27.51 27.10 26.01 25.47 24.34 24.37 24.50 24.90 25.29 25.08 23.46 23.34 22.57 22.01 21.88 22.02 21.51 22.45 21.90 21.82 20.25 18.95 19.23 21.76 23.35 23.15 22.34 21.61 18.01 18.02 17.88 17.02 16.84 18.31 18.89 18.31 20.67 21.38
25.68 23.68 22.82 22.93 22.75 22.94 22.75 22.97 23.61 23.60 23.44 23.10 22.84 22.56 21.65 21.04 20.66 21.32 21.29 19.92 17.82 17.43 17.22 18.06 18.83 20.00 20.01 20.79 23.12 16.99 15.31 14.74 16.39 19.01 19.16 15.50 16.22 20.07
22.33 21.76 21.44 21.80 21.65 21.86 21.51 21.56 21.24 22.71 23.98 23.15 22.23 21.79 21.53 20.81 20.16 19.52 18.43 17.51 15.92 15.57 14.61 16.08 17.76 16.45 13.10 9.24 16.37 23.45 13.16 15.04 14.36 13.62 15.68 15.48 13.38 17.77
20.53 19.54 19.39 20.11 20.27 20.21 20.45 20.18 20.23 20.65 20.45 19.82 19.14 18.65 18.85 18.81 17.87 16.92 16.55 15.40 15.25 15.88 15.90 16.12 14.65 14.07 10.65 9.74 7.90 12.16 21.79 14.77 12.60 10.80 11.45 13.76 16.96 22.21
18.81 18.42 18.69 18.59 18.21 17.74 16.93 16.95 16.50 15.71 16.25 15.99 15.75 15.86 16.02 15.98 14.69 15.02 15.13 14.50 15.47 15.86 14.15 14.14 14.65 14.92 15.04 12.67 6.51 7.53 13.66 21.98 20.07 13.57 11.43 7.14 10.41 13.94
17.16 17.06 17.15 17.21 16.98 16.77 16.56 16.57 15.91 15.27 14.37 13.41 11.32 11.13 11.70 13.41 12.56 12.68 13.45 13.46 13.11 13.25 13.68 14.58 16.57 16.51 14.97 14.46 7.99 0.64 9.36 11.47 19.17 22.95 22.78 19.42 10.86 8.02
13.12 13.27 12.58 13.47 14.30 13.56 13.73 12.77 12.21 12.27 13.09 12.42 11.87 11.32 11.02 11.16 12.29 12.10 10.88 11.75 11.55 10.86 11.19 10.59 12.47 12.50 13.49 13.73 9.96 7.54 6.96 7.37 12.23 11.97 12.11 20.52 21.31 23.50

GFSNE_sfc_wetblb_129.txt.gz
Wetbulb
64.22 65.06 63.32 62.19 60.66 60.24 58.32 59.85 56.53 53.82 53.94 57.41 58.03 60.01 60.17 59.87 57.61 57.78 59.54 50.85 49.34 49.11 49.94 51.84 53.64 54.63 54.96 55.46 56.31 57.52 58.64 59.35 59.52 59.46 59.73 60.09 58.99 57.90
62.93 62.96 62.33 62.60 62.25 60.11 61.12 58.31 58.73 57.05 54.48 56.40 58.75 59.73 60.11 59.50 56.47 57.91 57.81 51.87 48.43 48.88 47.67 48.77 50.45 52.32 52.88 53.42 54.01 54.94 55.97 56.89 57.67 58.07 58.01 57.36 56.74 56.04
61.87 61.66 60.54 61.50 61.06 59.21 59.23 59.27 58.32 58.14 55.61 58.49 59.04 60.02 58.35 57.45 55.73 58.14 56.71 56.75 54.43 47.47 46.45 46.56 47.42 48.65 49.79 50.31 50.81 52.00 52.88 53.49 54.14 54.88 55.30 55.08 54.91 55.81
60.63 59.90 58.65 59.39 59.63 58.65 57.98 57.50 57.18 58.29 56.86 54.62 55.99 57.10 57.35 57.83 56.75 55.06 52.65 51.45 51.35 47.85 45.87 46.23 46.09 46.04 46.65 47.15 47.78 48.25 48.68 49.24 49.79 50.75 51.86 52.23 52.21 51.73
59.48 58.88 58.70 58.59 57.98 57.63 57.28 57.08 56.87 57.59 57.34 55.95 53.66 56.47 52.05 53.09 46.89 46.48 46.16 44.93 45.33 45.29 44.79 44.81 45.43 46.53 46.06 45.16 45.52 45.31 44.84 44.00 43.89 44.51 45.06 44.87 45.37 45.13
59.12 58.97 59.15 58.29 58.15 57.28 56.81 56.73 56.51 56.81 55.95 55.25 53.81 53.46 52.45 49.80 49.80 44.77 41.43 41.91 40.26 41.48 41.79 42.14 43.75 44.45 44.44 43.84 43.74 43.11 42.38 41.16 40.50 39.48 39.04 38.05 38.48 39.13
58.82 58.46 59.41 57.00 52.05 54.66 56.59 56.59 56.63 56.25 54.63 53.64 52.90 52.03 49.61 46.99 47.47 45.89 42.15 38.27 38.04 39.83 38.87 38.75 39.90 40.10 40.88 41.43 41.24 40.49 39.43 38.91 37.58 36.85 36.13 35.48 35.06 35.10
58.08 57.43 57.98 50.51 50.64 46.66 47.20 48.29 55.02 55.87 54.45 54.01 53.09 51.68 50.67 50.02 47.17 45.62 38.52 37.60 36.81 38.88 35.89 33.02 36.26 34.12 36.90 37.15 38.33 38.14 37.80 37.14 36.61 35.60 34.26 33.23 32.56 32.32
58.17 56.87 56.01 55.35 51.34 53.64 44.61 44.30 45.34 45.21 45.92 55.16 53.94 53.47 51.79 50.92 48.05 42.97 42.60 42.56 39.19 37.15 36.52 32.11 33.05 32.02 35.28 36.82 37.42 37.12 36.60 36.18 35.06 33.97 32.99 32.00 31.19 31.00
57.52 56.53 55.71 55.01 54.23 53.89 52.62 46.93 43.76 42.26 43.33 47.13 55.81 56.71 55.72 52.02 49.40 48.24 45.63 35.06 34.25 35.77 35.75 31.36 32.14 31.28 32.29 34.42 36.05 35.72 34.95 34.08 33.53 32.29 31.45 30.83 30.27 29.95
56.09 55.73 55.57 55.89 47.33 46.30 48.74 41.19 35.24 33.06 36.53 37.80 38.37 38.57 41.76 44.58 45.19 42.54 38.91 39.16 32.70 33.59 33.42 31.34 30.28 29.72 31.33 31.60 32.78 34.13 33.65 32.89 32.30 32.07 31.57 30.29 30.11 29.57
49.34 52.78 44.30 51.63 40.31 40.49 46.70 41.49 37.74 34.33 33.79 34.15 34.87 34.63 35.69 35.03 34.98 44.36 43.45 42.77 33.23 31.94 33.42 30.00 29.29 29.29 26.26 30.33 31.51 31.92 31.70 32.10 31.82 31.30 31.00 30.30 30.12 31.08
43.31 43.20 39.95 40.68 39.59 40.13 41.53 42.09 39.59 34.12 32.68 33.42 32.58 31.98 32.17 32.23 32.34 33.38 33.97 42.53 37.41 35.06 34.30 32.48 29.82 29.29 28.12 26.61 28.45 29.52 29.99 30.55 30.29 31.00 31.06 30.87 30.16 30.65
38.32 34.33 35.06 36.76 36.56 35.84 35.19 34.37 33.74 33.54 33.02 32.19 31.21 28.54 28.14 27.60 28.30 29.87 31.18 31.95 32.69 33.24 33.70 32.96 31.37 29.70 27.45 24.63 23.85 27.25 28.07 28.85 29.72 28.91 29.55 28.27 28.11 28.60
33.61 33.67 34.09 33.62 32.90 31.92 32.22 32.19 32.93 33.42 32.20 30.83 27.44 24.51 25.73 27.28 28.77 28.69 29.02 28.59 27.71 28.73 31.35 32.32 31.34 29.71 29.13 25.83 24.00 24.46 24.12 26.30 28.61 27.73 28.30 28.93 30.26 31.49
30.03 29.95 29.36 29.34 29.74 29.64 29.88 29.23 29.50 30.54 28.80 25.99 24.52 25.03 26.77 27.08 27.21 28.28 27.42 26.84 25.01 23.71 26.75 28.48 29.64 28.95 26.26 26.37 25.38 24.49 25.74 24.70 26.55 27.53 28.49 29.17 30.58 31.92
29.90 29.80 28.55 28.29 26.92 26.26 26.00 26.55 26.92 26.91 25.12 25.18 24.59 24.23 24.31 24.81 24.41 25.86 25.91 25.45 23.56 22.00 21.92 24.19 26.59 27.39 27.45 26.98 24.93 24.88 24.12 24.41 26.68 26.94 26.86 26.51 28.51 30.75
25.00 23.63 23.25 23.85 23.89 24.05 23.68 23.66 24.51 24.68 24.94 24.82 24.56 24.21 23.30 23.14 22.80 24.04 24.57 23.24 21.54 21.55 21.71 23.53 24.34 24.14 23.83 23.84 26.67 23.61 25.19 25.05 25.93 25.82 26.42 26.40 27.26 29.85
21.10 20.83 20.30 20.66 21.09 22.04 22.29 22.27 21.95 23.23 24.41 23.58 23.12 22.71 22.66 22.56 22.76 22.42 22.80 22.60 22.09 22.60 23.40 25.30 24.93 24.46 21.50 19.22 22.87 25.81 24.40 24.79 24.82 24.87 26.16 26.81 26.60 28.04
19.15 18.67 18.34 18.73 18.91 19.57 20.43 20.78 21.14 21.91 22.43 22.59 22.49 22.71 22.73 22.42 22.06 22.14 22.98 22.84 21.95 21.81 22.00 23.96 25.05 26.10 24.79 23.07 22.36 23.24 25.15 24.87 25.30 24.49 25.36 26.90 27.05 23.84
18.01 17.82 19.01 19.33 19.56 19.70 20.00 19.45 19.64 20.36 21.61 21.96 22.66 22.76 22.90 22.35 21.74 21.81 21.73 22.12 22.64 22.29 20.24 19.34 19.29 22.79 24.54 25.38 21.81 21.17 22.70 23.65 24.86 24.61 24.28 24.57 23.69 25.13
14.94 14.82 16.30 17.76 19.13 19.82 20.50 20.74 20.49 20.84 20.73 20.69 21.41 22.17 22.52 22.24 21.18 21.23 21.45 20.24 19.73 19.81 19.50 21.35 23.08 23.96 23.80 22.75 20.03 19.67 21.08 22.37 22.12 22.05 21.07 20.70 21.67 20.45
12.14 12.34 12.61 13.73 16.19 18.14 19.12 19.37 18.87 19.23 19.40 19.80 20.23 20.63 20.95 20.11 20.85 21.10 20.50 20.30 20.38 20.09 19.89 19.30 20.73 22.20 20.61 20.33 20.06 19.49 17.24 18.96 20.87 21.40 21.85 19.31 19.13 19.51

GFSNE_sfc_wetblb_132.txt.gz
Wetbulb
65.22 66.84 66.70 67.49 67.14 66.17 64.91 63.50 61.86 55.70 58.68 60.45 61.41 63.92 64.48 64.17 60.97 61.91 61.78 51.24 49.79 50.08 51.12 52.40 54.42 55.15 55.36 55.65 56.03 57.01 58.25 58.83 59.45 59.57 59.80 60.23 60.52 60.47
65.08 65.12 66.91 67.10 65.86 66.19 64.80 63.89 63.49 61.24 56.31 61.91 62.22 63.50 62.67 61.88 59.38 60.83 59.65 52.72 49.09 49.08 48.99 49.40 51.40 52.69 53.11 53.44 53.67 54.57 55.65 56.88 57.74 58.28 58.73 59.13 59.24 58.46
62.89 62.99 63.69 65.24 64.79 64.93 64.51 64.22 63.01 61.87 59.40 60.94 61.99 62.78 61.70 60.94 60.41 60.16 58.43 57.41 53.90 48.28 47.76 47.69 48.52 49.37 50.20 50.51 51.02 51.96 53.06 54.19 55.22 56.12 57.14 57.57 57.43 57.17
61.58 61.37 61.45 63.01 63.60 63.88 61.82 61.96 62.78 61.53 58.89 59.27 61.32 60.74 60.76 61.63 60.15 58.59 56.68 57.29 56.79 48.74 47.92 47.99 47.05 46.53 47.47 48.01 48.47 49.05 49.79 50.51 51.04 52.27 52.93 53.86 54.69 55.95
61.38 61.01 60.58 62.48 62.68 62.70 60.75 60.68 61.77 59.64 58.85 58.09 58.83 60.60 58.71 59.33 53.52 48.52 50.18 51.21 48.19 47.03 44.68 44.61 45.57 45.99 46.30 46.30 47.22 47.72 47.69 47.29 47.07 46.84 47.25 48.03 48.97 50.04
61.32 62.81 61.00 61.09 62.67 62.24 59.71 60.10 60.28 57.96 57.44 57.02 57.09 57.07 55.18 53.09 53.18 48.06 43.51 43.09 41.70 42.81 42.86 43.72 44.79 45.84 45.72 45.84 45.75 45.57 45.03 44.83 44.18 42.90 42.07 42.06 42.56 44.03
61.17 61.53 60.93 58.95 54.21 57.18 59.70 59.96 59.55 58.08 56.56 56.06 55.50 55.48 51.56 49.13 49.33 48.53 44.58 39.11 38.80 40.99 39.57 39.31 41.41 42.77 43.17 43.83 44.94 44.24 43.03 42.21 41.59 40.55 39.56 39.25 38.96 39.64
60.44 59.78 59.97 53.38 52.38 47.45 47.63 49.37 56.71 58.71 56.33 55.02 55.52 54.89 52.70 52.25 51.43 47.29 39.84 39.05 38.27 39.36 36.71 33.84 37.16 36.05 37.39 39.16 39.98 40.10 39.97 39.51 38.79 37.98 37.26 36.84 36.32 36.17
60.88 59.34 58.42 58.82 53.53 57.21 46.27 45.46 46.13 46.36 47.92 57.56 56.50 55.80 53.59 54.94 51.80 46.22 44.26 43.58 39.61 37.61 36.52 32.22 34.40 33.39 36.97 37.85 38.48 38.37 38.11 37.76 37.02 36.13 35.34 34.50 33.86 33.38
59.79 59.69 58.56 58.43 57.19 56.86 55.26 51.80 52.90 51.35 49.60 54.26 59.15 59.08 57.47 56.88 54.45 52.22 46.77 36.21 35.08 36.39 36.76 32.09 32.95 31.80 33.10 36.00 37.72 37.52 36.84 36.06 35.37 34.52 33.80 33.05 32.27 31.89
58.69 58.95 58.47 58.27 49.64 46.91 53.03 49.69 43.28 35.49 37.90 40.15 40.66 44.17 46.71 46.62 49.87 44.86 38.95 39.38 32.95 34.94 34.93 32.60 31.56 30.89 32.00 32.00 33.94 35.41 35.13 34.56 33.85 33.08 32.47 31.90 31.46 30.69
52.60 56.99 45.28 55.66 43.64 42.37 53.45 47.45 43.57 39.11 36.21 37.12 37.30 38.35 38.72 42.19 40.15 51.55 43.75 42.25 33.49 32.77 34.22 31.07 30.68 30.35 27.38 31.35 31.85 32.39 32.38 32.96 33.15 32.81 32.06 31.32 30.42 30.78
45.46 46.54 48.34 42.19 42.01 42.19 46.87 47.43 47.61 37.48 34.94 35.67 34.76 34.76 34.58 34.58 35.49 36.03 39.84 44.54 38.39 36.21 35.78 33.45 31.47 30.99 29.44 27.64 30.04 31.01 31.04 31.03 31.21 31.67 31.78 31.11 30.90 31.31
40.02 42.56 40.38 40.38 40.74 40.71 40.02 38.19 35.60 36.12 36.03 34.58 33.85 32.59 32.15 31.18 30.61 31.86 32.37 32.72 33.78 35.12 34.90 34.76 33.38 31.25 28.03 26.01 24.98 28.59 29.70 30.18 30.38 29.18 29.54 30.68 29.48 28.95
33.31 33.79 35.18 35.30 34.21 33.08 34.08 33.84 34.18 35.30 34.40 33.67 32.31 29.08 29.26 29.34 30.21 29.65 29.93 29.86 29.03 30.26 32.40 33.13 34.22 31.63 30.30 27.18 24.94 25.88 25.13 27.89 29.20 29.09 28.89 28.41 29.98 31.53
31.84 31.75 31.19 31.31 32.24 31.86 32.09 31.74 32.75 34.04 34.75 32.04 28.92 27.62 28.87 28.60 28.95 30.01 28.55 28.24 26.40 25.59 28.83 31.35 31.79 30.80 27.33 27.33 26.07 24.43 25.51 24.72 28.29 29.38 29.95 30.28 31.30 32.70
28.58 27.97 29.13 29.16 28.42 27.76 27.39 28.72 30.01 29.96 27.77 27.65 27.72 26.52 26.70 26.87 26.85 27.76 27.60 27.09 24.47 23.61 23.58 26.31 28.58 29.47 28.86 27.51 24.81 26.23 26.46 26.80 28.91 28.25 27.73 27.61 29.61 31.74
24.33 22.75 22.01 22.97 23.48 24.21 24.65 25.34 26.11 26.33 26.85 26.50 26.33 25.97 25.17 25.45 25.00 25.53 26.31 25.10 22.77 22.58 22.66 23.85 24.61 24.12 24.39 24.98 28.99 26.18 27.01 26.80 27.18 27.25 28.35 27.83 28.42 30.94
20.08 19.86 19.54 20.24 20.76 21.39 22.27 22.67 22.24 24.11 25.79 24.93 24.67 24.26 24.47 24.56 24.29 23.76 23.84 23.82 23.28 23.82 25.02 27.18 28.15 26.74 23.00 19.21 24.04 28.51 25.99 26.23 27.20 27.45 28.56 29.08 28.58 29.29
20.41 19.44 19.67 20.44 20.08 19.88 20.77 21.59 22.28 23.04 23.37 23.51 23.84 24.26 24.65 24.41 24.08 23.56 23.65 23.40 23.46 24.17 25.31 27.36 28.15 27.66 24.38 22.39 22.32 23.55 27.25 28.00 28.50 27.39 27.17 28.36 28.69 23.71
18.40 18.58 20.34 21.55 21.96 22.35 22.47 22.07 22.07 22.47 23.18 23.33 23.71 23.67 24.66 24.77 24.15 24.81 25.16 25.49 25.33 24.13 21.81 21.70 24.40 28.13 27.81 27.13 22.90 21.43 22.94 24.73 26.28 27.61 26.36 27.42 26.87 27.30
17.26 16.82 17.41 18.68 20.81 22.09 22.59 22.82 22.40 22.76 22.77 23.45 23.76 24.49 25.59 25.75 25.00 24.93 24.98 24.24 23.26 22.42 21.38 23.44 25.76 26.78 26.68 24.77 21.68 21.20 21.97 23.02 22.45 21.59 21.12 21.38 24.62 25.06
15.62 15.52 15.33 15.74 17.34 19.56 21.34 22.56 22.12 22.35 23.05 23.50 23.78 23.68 24.94 23.96 23.88 24.05 23.46 23.08 22.73 22.32 22.70 23.25 24.83 25.46 24.19 23.73 22.75 21.28 20.82 21.81 23.14 22.91 22.86 19.53 19.11 19.21

GFSNE_sfc_wetblb_135.txt.gz
Wetbulb
63.96 64.90 64.85 65.19 65.99 65.86 65.74 64.64 62.25 58.13 60.05 63.31 62.93 66.01 65.86 65.07 61.79 63.69 63.78 53.04 49.66 49.70 51.21 53.31 54.95 55.71 55.92 56.51 56.98 57.74 58.52 58.78 59.20 59.39 59.73 59.95 60.28 60.76
64.78 65.33 65.34 64.75 65.60 66.46 66.32 65.78 64.95 62.40 57.52 62.59 63.43 63.38 63.79 64.15 61.37 63.01 62.87 54.03 49.17 48.43 48.93 50.42 52.12 53.47 53.72 54.29 54.68 55.25 55.90 56.52 57.43 58.07 58.57 59.04 59.78 60.14
65.36 64.38 63.66 65.03 64.32 65.36 65.68 65.55 64.74 64.14 59.87 62.96 63.13 64.37 61.80 63.20 61.91 61.86 62.37 61.59 58.08 47.81 47.76 49.05 49.75 50.12 50.57 50.62 51.61 52.23 52.83 53.87 54.99 56.06 57.29 58.30 59.22 59.60
62.36 62.84 62.70 63.19 63.41 63.70 63.73 63.72 64.67 64.67 62.91 61.34 63.69 62.84 62.81 63.40 62.50 60.26 59.91 59.09 58.52 49.10 47.74 47.98 48.05 48.14 47.91 47.80 48.53 49.38 49.68 50.37 51.30 52.55 54.03 55.40 56.80 57.43
62.67 61.39 62.00 62.11 61.98 62.82 62.25 61.57 62.81 63.40 63.62 62.31 61.63 63.55 61.13 62.33 57.24 52.41 53.39 51.90 50.01 49.68 46.98 46.84 47.18 47.63 47.38 47.09 47.13 47.70 47.93 48.12 48.17 48.45 48.96 49.82 51.29 52.67
61.45 62.62 63.13 62.12 61.09 62.39 62.63 61.47 61.74 62.06 62.37 60.05 60.46 60.87 57.93 56.12 56.32 50.45 46.91 45.19 43.24 44.17 45.23 46.87 46.42 45.88 45.99 45.58 45.65 46.48 46.95 47.20 46.67 46.15 45.60 44.70 45.26 47.06
59.58 60.73 61.96 60.52 54.17 57.76 62.01 60.81 60.66 60.20 59.93 57.92 57.78 57.42 55.49 51.02 51.89 51.15 49.15 41.25 40.20 41.45 40.72 39.64 43.13 44.77 44.79 44.59 46.61 45.79 45.63 45.53 44.77 44.01 43.35 42.42 42.22 43.06
51.67 54.73 61.42 53.70 53.69 47.71 48.00 48.50 57.25 59.09 57.91 56.96 56.57 55.59 54.97 53.72 53.35 50.17 42.56 40.67 41.01 40.23 36.76 34.36 37.48 36.46 38.29 40.08 42.98 43.38 43.67 43.62 43.30 42.59 41.44 40.88 40.78 40.34
46.56 50.10 53.08 60.32 55.19 61.61 49.17 45.22 46.11 46.51 48.45 58.35 56.92 56.66 56.60 56.20 53.64 50.27 45.27 44.55 43.89 39.21 36.84 32.55 34.00 33.59 36.89 38.47 39.51 40.25 40.62 40.54 40.24 39.23 38.49 37.77 37.25 36.63
47.46 50.91 51.78 58.10 59.40 58.92 59.01 54.84 54.06 54.70 52.19 52.11 58.59 58.25 57.93 57.39 57.43 52.57 49.89 37.63 35.78 35.82 37.07 32.09 32.73 31.56 34.00 36.89 38.64 38.50 38.19 37.92 37.48 37.14 36.42 35.63 34.94 34.03
47.66 52.96 55.43 58.64 52.93 47.60 57.48 53.37 49.57 46.33 41.07 44.52 46.46 47.54 47.74 47.54 52.52 47.18 40.82 39.57 33.10 34.55 34.73 32.99 31.57 30.93 31.75 31.72 34.50 36.93 36.57 36.27 35.87 35.44 35.00 34.24 33.47 32.59
39.30 49.12 46.15 53.51 46.87 42.52 55.22 52.87 46.91 46.89 39.23 38.35 39.08 42.70 43.07 45.79 42.11 52.05 45.10 42.61 33.64 32.73 34.36 31.29 31.25 30.84 27.73 31.29 31.72 31.98 33.19 34.22 34.33 34.22 33.90 33.46 32.24 29.91
35.11 39.24 45.85 42.52 41.98 42.34 44.70 54.06 48.74 44.34 37.08 41.62 40.33 38.72 37.61 40.17 41.78 38.90 44.48 46.53 38.16 36.54 35.63 33.73 31.76 31.58 30.07 27.78 30.31 31.14 31.58 31.58 31.70 32.02 32.77 32.48 31.81 30.12
31.31 32.46 34.11 36.33 38.32 40.35 40.35 44.34 39.80 38.35 39.98 38.90 38.35 34.73 34.73 34.36 32.91 33.64 33.46 34.36 36.00 36.90 35.37 35.07 33.29 31.99 28.64 26.53 25.95 29.34 29.85 30.69 30.72 29.87 30.23 31.72 31.97 31.33
31.36 32.40 32.69 33.14 34.13 33.25 35.04 36.18 35.80 37.27 36.54 36.72 36.18 33.46 32.55 32.06 31.39 30.81 31.53 31.57 31.31 33.41 35.19 33.64 35.03 32.99 31.82 28.46 25.92 26.65 26.41 28.21 29.16 28.21 28.41 28.00 27.85 29.02
30.02 29.96 29.95 30.24 31.35 31.15 32.39 32.46 32.91 33.64 36.54 37.08 33.93 30.75 31.72 31.70 30.81 31.60 30.57 30.56 28.72 27.57 30.63 32.85 33.80 32.83 28.53 28.56 27.95 25.61 26.74 24.70 27.91 27.74 27.95 28.94 30.28 30.47
27.36 25.42 24.51 24.79 24.39 25.97 27.32 27.84 30.46 31.83 31.91 32.09 31.34 29.49 29.46 29.27 28.78 30.38 29.74 28.05 26.15 25.35 25.60 28.21 29.74 29.98 29.65 28.12 25.50 25.68 25.89 25.93 27.99 28.57 29.58 28.39 29.50 30.88
26.84 22.68 20.79 21.03 21.35 22.42 22.78 23.87 25.02 26.10 27.93 28.81 29.28 29.36 28.10 27.51 27.24 27.48 27.61 26.22 24.02 24.00 23.75 25.32 26.05 25.54 25.42 26.87 30.01 26.11 26.88 27.02 28.52 29.20 29.62 26.97 26.96 30.76
24.68 23.97 22.77 21.23 20.77 21.08 22.37 22.47 22.36 24.23 25.95 25.40 25.43 25.77 26.08 26.18 25.79 24.93 24.70 24.20 23.13 23.72 24.46 25.99 26.49 25.99 21.97 18.44 24.44 30.49 26.63 26.88 27.11 27.00 28.18 28.89 28.53 29.25
22.32 20.67 20.81 22.32 21.82 22.02 22.56 22.78 23.15 23.83 24.25 24.64 24.69 25.32 25.51 24.96 24.04 24.09 24.38 24.48 24.80 25.81 26.43 27.91 26.65 25.12 22.49 21.41 20.67 23.38 30.01 27.50 27.26 26.62 27.62 29.39 25.08 25.59
20.81 18.70 18.27 19.52 22.12 23.40 24.01 24.02 23.69 23.70 24.46 24.78 24.79 25.13 25.41 25.26 24.40 24.76 24.36 24.18 23.86 23.64 22.67 23.51 25.73 27.04 26.35 26.37 22.24 21.46 22.62 25.78 26.41 28.22 27.97 27.28 25.36 25.24
18.84 18.14 16.96 16.71 17.72 20.26 22.88 23.83 23.22 23.42 23.64 24.01 24.64 24.97 25.40 25.69 24.96 24.58 24.15 22.50 22.77 23.37 23.55 25.94 27.72 27.24 25.84 23.38 20.60 20.04 19.90 21.24 22.69 22.45 22.06 21.88 23.08 24.46
15.69 16.38 16.31 16.21 15.85 16.97 19.73 21.13 22.40 22.52 22.83 23.40 23.78 24.18 25.14 24.16 24.63 24.39 24.02 24.05 23.59 23.31 24.02 24.25 25.85 26.29 24.50 23.43 22.70 21.90 20.60 20.20 21.35 21.75 19.76 20.33 20.30 20.41